This demonstration page uses our WeatherBlox Daily Observations layout. Learn more.

Left ArrowRight Arrow

36.19886, -115.1175

Hourly Observations for April 13, 2018

Temp ( °F °C ) Dew Point ( °F °C ) Humidity (%) Winds ( mph kmh ) Pressure ( in mb ) Visibility ( mi km ) Precip ( " mm )
12:53 am 00:53 Clear 55 12.8 N/A 10 10 N 17 28 30.13 1020 10 16 N/A
1:53 am 01:53 Clear 54 12.2 1 -17.2 11 11 N 15 24 30.15 1021 10 16 N/A
2:53 am 02:53 Clear 53 11.7 3 -16.1 13 13 N 10 17 30.17 1022 10 16 N/A
3:53 am 03:53 Clear 51 10.6 5 -15 15 15 NE 8 13 30.20 1023 10 16 N/A
4:53 am 04:53 Clear 51 10.6 7 -13.9 17 17 N 15 24 30.22 1024 10 16 N/A
5:53 am 05:53 Clear 51 10.6 9 -12.8 18 18 NNW 20 31 30.24 1024 10 16 N/A
6:53 am 06:53 Sunny 52 11.1 10 -12.2 18 18 NNW 21 33 30.26 1025 10 16 N/A
7:53 am 07:53 Sunny 54 12.2 12 -11.1 19 19 N 18 30 30.30 1026 10 16 N/A
8:53 am 08:53 Sunny 56 13.3 12 -11.1 17 17 N 21 33 30.32 1027 10 16 N/A
9:53 am 09:53 Sunny 58 14.4 10 -12.2 15 15 NNW 16 26 30.32 1027 10 16 N/A
10:53 am 10:53 Sunny 60 15.6 9 -12.8 13 13 NNE 9 15 30.34 1027 10 16 N/A
11:19 am 11:19 Sunny 61 16.1 10 -12.2 13 13 NNW 15 24 30.27 1025 10 16 N/A
11:53 am 11:53 Sunny 63 17.2 9 -12.8 12 12 NNW 20 31 30.31 1026 10 16 N/A
12:53 pm 12:53 Sunny 66 18.9 8 -13.3 10 10 NNW 22 35 30.29 1026 10 16 N/A
1:53 pm 13:53 Sunny 68 20 7 -13.9 9 9 NNW 22 35 30.27 1025 10 16 N/A
2:53 pm 14:53 Sunny 69 20.6 6 -14.4 8 8 NNW 17 28 30.26 1025 10 16 N/A
3:53 pm 15:53 Sunny 71 21.7 6 -14.4 8 8 NNW 16 26 30.24 1024 10 16 N/A
4:53 pm 16:53 Sunny 71 21.7 6 -14.4 8 8 NNW 21 33 30.23 1024 10 16 N/A
5:53 pm 17:53 Sunny 72 22.2 4 -15.6 7 7 NNW 17 28 30.23 1024 10 16 N/A
6:53 pm 18:53 Sunny 70 21.1 4 -15.6 7 7 N 12 19 30.24 1024 10 16 N/A
7:53 pm 19:53 Clear 68 20 5 -15 8 8 N N/A 30.26 1025 10 16 N/A
8:53 pm 20:53 Clear 67 19.4 6 -14.4 9 9 N N/A 30.27 1025 10 16 N/A
9:53 pm 21:53 Clear 63 17.2 8 -13.3 11 11 N 5 7 30.30 1026 10 16 N/A
10:53 pm 22:53 Clear 62 16.7 8 -13.3 12 12 NNW 8 13 30.30 1026 10 16 N/A
11:53 pm 23:53 Clear 61 16.1 8 -13.3 12 12 NNW 8 13 30.31 1026 10 16 N/A

Powered by AerisWeather